Location: Chrome
(40.5765°N, 74.2163°W)
Time: 01:56:11
(UTC+00:00)

NOAA 11 - Pass Details

Date: 06 December 2019
Orbit: 833 x 849 km, 98.4° (Epoch: 25 January)

Event Time Altitude Azimuth Distance (km) Brightness Sun altitude
Rises 23:04:36 0° 145° (SE) 3,375 7.1 -17.5°
Reaches altitude 10° 23:07:03 10° 138° (SE) 2,447 6.3 -17.9°
Maximum altitude 23:12:07 42° 69° (ENE) 1,193 4.5 -18.9°
Drops below altitude 10° 23:17:14 10° 1° (N) 2,472 6.5 -19.8°
Sets 23:19:43 0° 355° (N) 3,414 7.3 -20.3°
